Friday Harbor, WA

1:02 PM PDT on April 25, 2017 (GMT -0700)
Friday Harbor

Weather History for KFHR - June, 2013

Change the Weather History Date:

Saturday, June 22, 2013

  Actual Average Record
Temperature  
Mean Temperature 58 °F -  
Max Temperature 73 °F 65 °F 73 °F (2004)
Min Temperature 45 °F 45 °F 42 °F (2000)
Degree Days  
Heating Degree Days 6    
Growing Degree Days 8 (Base 50)    
Moisture  
Dew Point 50 °F    
Average Humidity 74    
Maximum Humidity 100    
Minimum Humidity 49    
Precipitation  
Precipitation 0.00 in - - ()
Sea Level Pressure  
Sea Level Pressure 30.03 in    
Wind  
Wind Speed 1 mph (East)    
Max Wind Speed 5 mph    
Max Gust Speed -    
Visibility 10 miles    
Events      
Averages and records for this station are not official NWS values.
T = Trace of Precipitation, MM = Missing Value Source: NWS Daily Summary

Daily Weather History Graph

Daily Weather History Graph

Search for Another Location

Airport or City:

Trip Planner

Search our weather history database for the weather conditions in past years. The results will help you decide how hot, cold, wet, or windy it might be!

Date:

Astronomy

Jun. 22, 2013 Rise Set
Actual Time 5:10 AM PDT 9:17 PM PDT
Civil Twilight 4:28 AM PDT 10:00 PM PDT
Nautical Twilight 3:28 AM PDT 10:59 PM PDT
Astronomical Twilight 1:25 AM PDT 1:01 AM PDT
Moon 8:32 PM PDT (6/22) 4:34 AM PDT (6/22)
Length of Visible Light 17h 31m
Length of Day
16h 07m
Waxing Gibbous, 99% of the Moon is Illuminated
Jun 22
Waxing Gibbous
Jun 23
Full
Jun 29
Last Quarter
Jul 8
New
Jul 15
First Quarter

Hourly Weather History & Observations

Time (PDT) Temp. Dew Point Humidity Pressure Visibility Wind Dir Wind Speed Gust Speed Precip Events Conditions
12:53 AM 46.9 °F 46.0 °F 97% 30.14 in 10.0 mi Calm Calm - N/A   Clear
1:53 AM 46.9 °F 46.0 °F 97% 30.13 in 9.0 mi Calm Calm - N/A   Clear
2:53 AM 45.0 °F 45.0 °F 100% 30.12 in 8.0 mi Calm Calm - N/A   Clear
3:53 AM 46.0 °F 45.0 °F 96% 30.12 in 6.0 mi Calm Calm - N/A   Clear
4:53 AM 45.0 °F 44.1 °F 97% 30.11 in 7.0 mi Calm Calm - N/A   Clear
5:53 AM 46.0 °F 45.0 °F 96% 30.10 in 8.0 mi Calm Calm - N/A   Clear
6:53 AM 52.0 °F 50.0 °F 93% 30.10 in 10.0 mi Calm Calm - N/A   Clear
7:01 AM 51.8 °F 51.8 °F 100% 30.10 in 10.0 mi Calm Calm - N/A   Partly Cloudy
7:53 AM 54.0 °F 51.1 °F 90% 30.09 in 10.0 mi Calm Calm - N/A   Clear
8:53 AM 55.9 °F 51.1 °F 84% 30.09 in 10.0 mi ESE 3.5 mph - N/A   Clear
9:53 AM 60.1 °F 51.1 °F 72% 30.08 in 10.0 mi ESE 3.5 mph - N/A   Clear
10:53 AM 64.9 °F 53.1 °F 65% 30.06 in 10.0 mi ESE 3.5 mph - N/A   Clear
11:53 AM 66.0 °F 52.0 °F 60% 30.05 in 10.0 mi SE 4.6 mph - N/A   Clear
12:53 PM 68.0 °F 53.1 °F 59% 30.04 in 10.0 mi Calm Calm - N/A   Clear
1:53 PM 70.0 °F 53.1 °F 55% 30.02 in 10.0 mi Calm Calm - N/A   Clear
2:53 PM 72.0 °F 53.1 °F 51% 30.00 in 10.0 mi ESE 3.5 mph - N/A   Clear
3:53 PM 72.0 °F 53.1 °F 51% 29.99 in 10.0 mi ESE 3.5 mph - N/A   Clear
4:53 PM 70.0 °F 53.1 °F 55% 29.96 in 10.0 mi ESE 4.6 mph - N/A   Clear
5:53 PM 71.1 °F 51.1 °F 49% 29.94 in 10.0 mi NNE 3.5 mph - N/A   Clear
6:53 PM 70.0 °F 51.1 °F 51% 29.93 in 10.0 mi Variable 3.5 mph - N/A   Clear
7:53 PM 68.0 °F 48.9 °F 50% 29.92 in 10.0 mi Calm Calm - N/A   Clear
8:53 PM 64.0 °F 50.0 °F 60% 29.91 in 10.0 mi Calm Calm - N/A   Clear
9:53 PM 61.0 °F 48.9 °F 64% 29.91 in 10.0 mi NNW 3.5 mph - N/A   Clear
10:53 PM 55.0 °F 48.9 °F 80% 29.90 in 10.0 mi Calm Calm - N/A   Clear
11:53 PM 54.0 °F 50.0 °F 86% 29.89 in 10.0 mi Calm Calm - N/A   Clear